| time (UTC) | temp F | wind direction | speed knots | gust knots | rain 1hr in | rain 24hr in | rain mn in | humidity % | barometer mb |
| 20260505051059 | 50 | 217 | 0.0 | 4.3 | 0.00 | 0.03 | 0.00 | 87 | 1014.6 |
| 20260505050559 | 50 | 166 | 0.0 | 6.1 | 0.00 | 0.03 | 0.00 | 87 | 1014.5 |
| 20260505050110 | 50 | 66 | 1.7 | 6.1 | 0.00 | 0.03 | 0.00 | 87 | 1014.5 |
| 20260505041607 | 49 | 328 | 0.9 | 3.5 | 0.00 | 0.03 | 0.00 | 89 | 1014.5 |
| 20260505041057 | 49 | 0 | 0.9 | 3.5 | 0.00 | 0.03 | 0.00 | 88 | 1014.5 |
| 20260505040557 | 49 | 360 | 0.9 | 3.5 | 0.00 | 0.03 | 0.00 | 88 | 1014.5 |
| 20260505040106 | 49 | 13 | 0.9 | 4.3 | 0.00 | 0.03 | 0.00 | 88 | 1014.4 |
| 20260505035601 | 49 | 352 | 1.7 | 4.3 | 0.00 | 0.03 | 0.00 | 88 | 1014.4 |
| 20260505035057 | 49 | 352 | 0.0 | 6.1 | 0.00 | 0.03 | 0.00 | 88 | 1014.3 |
| 20260505034613 | 49 | 352 | 1.7 | 6.1 | 0.00 | 0.03 | 0.00 | 88 | 1014.2 |
| 20260505034058 | 49 | 59 | 2.6 | 6.1 | 0.00 | 0.03 | 0.00 | 88 | 1014.3 |
| 20260505033557 | 49 | 28 | 0.9 | 7.0 | 0.00 | 0.03 | 0.00 | 88 | 1014.4 |
| 20260505033108 | 49 | 69 | 2.6 | 7.0 | 0.00 | 0.03 | 0.00 | 88 | 1014.4 |
| 20260505032557 | 49 | 48 | 2.6 | 6.1 | 0.00 | 0.03 | 0.00 | 89 | 1014.3 |
| 20260505032056 | 48 | 47 | 0.9 | 3.5 | 0.00 | 0.03 | 0.00 | 90 | 1014.2 |
| 20260505031607 | 48 | 352 | 0.9 | 4.3 | 0.00 | 0.03 | 0.00 | 91 | 1014.4 |
| 20260505031056 | 48 | 0 | 1.7 | 4.3 | 0.00 | 0.03 | 0.00 | 91 | 1014.3 |
| 20260505030600 | 48 | 18 | 0.9 | 1.7 | 0.00 | 0.03 | 0.00 | 90 | 1014.4 |
| 20260505030119 | 48 | 40 | 0.0 | 2.6 | 0.00 | 0.03 | 0.00 | 90 | 1014.3 |
| 20260505025558 | 48 | 40 | 0.9 | 2.6 | 0.00 | 0.03 | 0.00 | 90 | 1014.3 |
| 20260505025058 | 48 | 0 | 0.9 | 2.6 | 0.00 | 0.03 | 0.00 | 90 | 1014.4 |
| 20260505024612 | 48 | 53 | 0.9 | 2.6 | 0.00 | 0.03 | 0.00 | 90 | 1014.5 |
| 20260505024057 | 49 | 10 | 0.9 | 3.5 | 0.00 | 0.03 | 0.00 | 90 | 1014.5 |
| 20260505023558 | 49 | 51 | 0.9 | 3.5 | 0.00 | 0.03 | 0.00 | 91 | 1014.5 |
| 20260505023057 | 49 | 26 | 1.7 | 2.6 | 0.00 | 0.03 | 0.00 | 90 | 1014.6 |
| 20260505022601 | 49 | 28 | 0.9 | 2.6 | 0.00 | 0.03 | 0.00 | 91 | 1014.5 |
| 20260505022058 | 49 | 0 | 0.9 | 3.5 | 0.00 | 0.03 | 0.00 | 91 | 1014.7 |
| 20260505021557 | 49 | 11 | 1.7 | 3.5 | 0.00 | 0.03 | 0.00 | 91 | 1014.6 |
| 20260505021057 | 49 | 37 | 1.7 | 3.5 | 0.00 | 0.03 | 0.00 | 90 | 1014.7 |
| 20260505020558 | 49 | 54 | 0.9 | 2.6 | 0.00 | 0.03 | 0.00 | 90 | 1014.8 |
| 20260505020107 | 49 | 60 | 1.7 | 2.6 | 0.00 | 0.03 | 0.00 | 90 | 1014.8 |
| 20260505015557 | 49 | 52 | 1.7 | 2.6 | 0.00 | 0.03 | 0.00 | 90 | 1014.7 |
| 20260505015100 | 49 | 53 | 1.7 | 3.5 | 0.00 | 0.03 | 0.00 | 90 | 1014.7 |
| 20260505014556 | 49 | 59 | 0.9 | 3.5 | 0.00 | 0.03 | 0.00 | 90 | 1014.7 |
| 20260505014056 | 50 | 63 | 1.7 | 3.5 | 0.00 | 0.03 | 0.00 | 90 | 1014.8 |
| 20260505013557 | 50 | 55 | 1.7 | 3.5 | 0.00 | 0.03 | 0.00 | 90 | 1014.9 |
| 20260505013058 | 50 | 46 | 0.9 | 3.5 | 0.00 | 0.03 | 0.00 | 89 | 1014.7 |
| 20260505012600 | 50 | 42 | 1.7 | 2.6 | 0.00 | 0.03 | 0.00 | 89 | 1014.7 |
| 20260505012057 | 50 | 58 | 0.9 | 2.6 | 0.00 | 0.03 | 0.00 | 90 | 1014.7 |
| 20260505011601 | 50 | 43 | 0.9 | 3.5 | 0.00 | 0.03 | 0.00 | 90 | 1014.8 |
| 20260505011058 | 50 | 42 | 1.7 | 3.5 | 0.00 | 0.03 | 0.00 | 90 | 1014.8 |
| 20260505010558 | 50 | 40 | 1.7 | 3.5 | 0.00 | 0.03 | 0.00 | 90 | 1014.8 |
| 20260505010110 | 50 | 42 | 1.7 | 2.6 | 0.00 | 0.03 | 0.00 | 90 | 1014.9 |
| 20260505005559 | 50 | 49 | 0.9 | 2.6 | 0.00 | 0.03 | 0.00 | 89 | 1015.0 |
| 20260505005059 | 50 | 49 | 0.9 | 1.7 | 0.00 | 0.03 | 0.00 | 89 | 1014.9 |
| 20260505004631 | 50 | 49 | 0.9 | 2.6 | 0.00 | 0.03 | 0.00 | 89 | 1014.9 |
| 20260505004057 | 50 | 49 | 0.9 | 2.6 | 0.00 | 0.03 | 0.00 | 89 | 1014.9 |
| 20260505003558 | 51 | 44 | 0.9 | 2.6 | 0.00 | 0.03 | 0.00 | 88 | 1015.0 |
| 20260505003101 | 51 | 44 | 0.9 | 1.7 | 0.00 | 0.03 | 0.00 | 88 | 1015.1 |
| 20260505002600 | 51 | 9 | 0.0 | 1.7 | 0.00 | 0.03 | 0.00 | 87 | 1015.0 |
| 20260505002059 | 52 | 9 | 0.0 | 0.9 | 0.00 | 0.03 | 0.00 | 87 | 1015.0 |
| 20260505001558 | 52 | 0 | 0.0 | 1.7 | 0.00 | 0.03 | 0.00 | 86 | 1015.0 |
| 20260505001058 | 52 | 9 | 0.0 | 1.7 | 0.00 | 0.03 | 0.00 | 87 | 1015.1 |
| 20260505000558 | 53 | 0 | 0.0 | 2.6 | 0.00 | 0.03 | 0.00 | 86 | 1014.9 |
| 20260505000113 | 53 | 42 | 0.0 | 4.3 | 0.00 | 0.03 | 0.00 | 87 | 1015.1 |
| 20260504235557 | 53 | 41 | 0.9 | 4.3 | 0.00 | 0.03 | 0.00 | 87 | 1015.0 |
| 20260504235058 | 53 | 34 | 0.9 | 2.6 | 0.00 | 0.03 | 0.00 | 88 | 1014.9 |
| 20260504234559 | 53 | 352 | 1.7 | 2.6 | 0.00 | 0.03 | 0.00 | 88 | 1015.0 |
| 20260504234058 | 53 | 30 | 0.9 | 2.6 | 0.00 | 0.03 | 0.00 | 87 | 1015.0 |
| 20260504233559 | 53 | 55 | 0.9 | 2.6 | 0.00 | 0.03 | 0.00 | 89 | 1015.2 |
| 20260504233108 | 53 | 0 | 0.9 | 2.6 | 0.00 | 0.03 | 0.00 | 89 | 1014.9 |
| 20260504232558 | 53 | 0 | 0.0 | 2.6 | 0.00 | 0.03 | 0.00 | 89 | 1015.1 |
| 20260504232057 | 52 | 0 | 0.9 | 2.6 | 0.00 | 0.03 | 0.00 | 90 | 1015.1 |
| 20260504231626 | 52 | 0 | 0.0 | 0.9 | 0.00 | 0.03 | 0.00 | 90 | 1015.1 |
| 20260504231057 | 52 | 0 | 0.0 | 0.9 | 0.00 | 0.03 | 0.00 | 88 | 1015.1 |
| 20260504230600 | 52 | 0 | 0.0 | 0.9 | 0.00 | 0.03 | 0.00 | 86 | 1015.2 |
| 20260504230100 | 53 | 49 | 0.0 | 0.9 | 0.00 | 0.03 | 0.00 | 85 | 1015.1 |
| 20260504225559 | 53 | 0 | 0.0 | 1.7 | 0.00 | 0.03 | 0.03 | 87 | 1015.1 |
| 20260504225057 | 53 | 0 | 0.0 | 1.7 | 0.00 | 0.03 | 0.03 | 88 | 1015.1 |
| 20260504224620 | 53 | 49 | 0.9 | 1.7 | 0.00 | 0.03 | 0.03 | 88 | 1015.1 |
| 20260504224103 | 53 | 0 | 0.0 | 1.7 | 0.00 | 0.03 | 0.03 | 88 | 1015.2 |
| 20260504223557 | 53 | 0 | 0.0 | 1.7 | 0.00 | 0.03 | 0.03 | 88 | 1015.1 |
| 20260504223104 | 53 | 0 | 0.0 | 1.7 | 0.00 | 0.03 | 0.03 | 88 | 1015.2 |
| 20260504222559 | 53 | 49 | 0.9 | 1.7 | 0.00 | 0.03 | 0.03 | 87 | 1015.1 |
| 20260504222101 | 53 | 49 | 0.0 | 1.7 | 0.00 | 0.03 | 0.03 | 87 | 1015.1 |
| 20260504221646 | 53 | 49 | 0.9 | 1.7 | 0.00 | 0.03 | 0.03 | 87 | 1015.2 |
| 20260504221058 | 53 | 49 | 0.9 | 1.7 | 0.00 | 0.03 | 0.03 | 87 | 1015.2 |
| 20260504220558 | 54 | 0 | 0.0 | 1.7 | 0.00 | 0.03 | 0.03 | 86 | 1015.1 |
| 20260504215558 | 54 | 49 | 0.0 | 1.7 | 0.00 | 0.03 | 0.03 | 85 | 1015.1 |
| 20260504215059 | 54 | 0 | 0.9 | 2.6 | 0.00 | 0.03 | 0.03 | 85 | 1015.2 |
| 20260504214603 | 55 | 49 | 0.9 | 2.6 | 0.00 | 0.03 | 0.03 | 85 | 1015.1 |
| 20260504214100 | 55 | 60 | 0.9 | 2.6 | 0.00 | 0.03 | 0.03 | 84 | 1015.1 |
| 20260504213557 | 55 | 0 | 0.0 | 0.0 | 0.00 | 0.03 | 0.03 | 84 | 1015.1 |
| 20260504213103 | 56 | 0 | 0.0 | 0.0 | 0.00 | 0.03 | 0.03 | 84 | 1015.1 |
| 20260504212601 | 56 | 0 | 0.0 | 0.0 | 0.00 | 0.03 | 0.03 | 84 | 1015.3 |
| 20260504212057 | 56 | 0 | 0.0 | 0.0 | 0.00 | 0.03 | 0.03 | 83 | 1015.2 |
| 20260504211559 | 56 | 0 | 0.0 | 0.0 | 0.00 | 0.03 | 0.03 | 83 | 1015.2 |
| 20260504211058 | 56 | 0 | 0.0 | 0.0 | 0.00 | 0.03 | 0.03 | 83 | 1015.2 |
| 20260504210558 | 56 | 0 | 0.0 | 0.0 | 0.00 | 0.03 | 0.03 | 83 | 1015.2 |
| 20260504210100 | 56 | 0 | 0.0 | 0.0 | 0.00 | 0.03 | 0.03 | 83 | 1015.3 |
| 20260504205604 | 56 | 0 | 0.0 | 0.0 | 0.00 | 0.03 | 0.03 | 82 | 1015.3 |
| 20260504205058 | 57 | 0 | 0.0 | 0.0 | 0.00 | 0.03 | 0.03 | 81 | 1015.2 |
| 20260504204600 | 57 | 0 | 0.0 | 0.0 | 0.00 | 0.03 | 0.03 | 81 | 1015.2 |
| 20260504204101 | 57 | 0 | 0.0 | 3.5 | 0.00 | 0.03 | 0.03 | 80 | 1015.2 |
| 20260504203601 | 57 | 0 | 0.0 | 3.5 | 0.00 | 0.03 | 0.03 | 80 | 1015.2 |
| 20260504203100 | 57 | 101 | 0.9 | 1.7 | 0.00 | 0.03 | 0.03 | 80 | 1015.1 |
| 20260504202558 | 57 | 0 | 0.0 | 1.7 | 0.00 | 0.03 | 0.03 | 80 | 1015.1 |
| 20260504202058 | 57 | 92 | 0.0 | 2.6 | 0.00 | 0.03 | 0.03 | 80 | 1015.1 |
| 20260504201607 | 57 | 0 | 0.0 | 2.6 | 0.00 | 0.03 | 0.03 | 79 | 1015.0 |
| 20260504201057 | 58 | 0 | 0.0 | 2.6 | 0.00 | 0.03 | 0.03 | 79 | 1014.9 |
| 20260504200557 | 58 | 69 | 0.9 | 2.6 | 0.00 | 0.03 | 0.03 | 79 | 1015.0 |
| 20260504195558 | 58 | 76 | 0.9 | 6.1 | 0.00 | 0.03 | 0.03 | 78 | 1014.8 |
| 20260504195057 | 58 | 74 | 0.9 | 6.1 | 0.00 | 0.03 | 0.03 | 78 | 1014.7 |
| 20260504194604 | 58 | 93 | 1.7 | 6.1 | 0.00 | 0.03 | 0.03 | 77 | 1014.7 |
| 20260504194059 | 58 | 92 | 1.7 | 3.5 | 0.00 | 0.03 | 0.03 | 77 | 1014.6 |
| 20260504193601 | 59 | 82 | 0.9 | 5.2 | 0.00 | 0.03 | 0.03 | 77 | 1014.6 |
| 20260504193100 | 59 | 0 | 0.0 | 5.2 | 0.00 | 0.03 | 0.03 | 76 | 1014.6 |
| 20260504192558 | 59 | 94 | 1.7 | 5.2 | 0.00 | 0.03 | 0.03 | 75 | 1014.6 |
| 20260504192059 | 59 | 84 | 0.9 | 5.2 | 0.00 | 0.03 | 0.03 | 75 | 1014.5 |
| 20260504191622 | 59 | 82 | 1.7 | 5.2 | 0.00 | 0.03 | 0.03 | 75 | 1014.5 |
| 20260504191058 | 59 | 0 | 0.0 | 3.5 | 0.00 | 0.03 | 0.03 | 76 | 1014.5 |
| 20260504190558 | 60 | 0 | 0.9 | 5.2 | 0.00 | 0.03 | 0.03 | 75 | 1014.5 |
| 20260504190110 | 60 | 80 | 0.9 | 5.2 | 0.00 | 0.03 | 0.03 | 75 | 1014.3 |
| 20260504185557 | 60 | 86 | 0.9 | 3.5 | 0.00 | 0.03 | 0.03 | 75 | 1014.4 |
| 20260504185057 | 60 | 0 | 0.9 | 4.3 | 0.00 | 0.03 | 0.03 | 74 | 1014.4 |
| 20260504184609 | 60 | 107 | 0.9 | 6.1 | 0.00 | 0.03 | 0.03 | 75 | 1014.4 |
| 20260504184058 | 60 | 51 | 0.9 | 6.1 | 0.00 | 0.03 | 0.03 | 74 | 1014.2 |
| 20260504183558 | 61 | 104 | 1.7 | 6.1 | 0.00 | 0.03 | 0.03 | 75 | 1014.2 |
| 20260504183057 | 61 | 127 | 1.7 | 6.1 | 0.00 | 0.03 | 0.03 | 73 | 1014.2 |
| 20260504182602 | 61 | 72 | 1.7 | 6.1 | 0.00 | 0.03 | 0.03 | 73 | 1014.2 |
| 20260504182058 | 61 | 104 | 2.6 | 5.2 | 0.00 | 0.03 | 0.03 | 73 | 1014.2 |
| 20260504181606 | 61 | 0 | 0.9 | 5.2 | 0.00 | 0.03 | 0.03 | 73 | 1014.2 |
| 20260504181058 | 61 | 108 | 1.7 | 7.0 | 0.00 | 0.03 | 0.03 | 72 | 1014.1 |
| 20260504180558 | 61 | 55 | 2.6 | 7.0 | 0.00 | 0.03 | 0.03 | 72 | 1014.0 |
| 20260504180100 | 61 | 26 | 2.6 | 7.0 | 0.00 | 0.03 | 0.03 | 72 | 1013.9 |
| 20260504175557 | 61 | 49 | 3.5 | 9.6 | 0.00 | 0.05 | 0.03 | 71 | 1014.0 |
| 20260504175058 | 61 | 24 | 4.3 | 9.6 | 0.00 | 0.05 | 0.03 | 70 | 1013.9 |
| 20260504174601 | 62 | 63 | 4.3 | 7.8 | 0.00 | 0.05 | 0.03 | 70 | 1014.0 |
| 20260504174058 | 62 | 36 | 5.2 | 10.4 | 0.00 | 0.05 | 0.03 | 71 | 1014.0 |
| 20260504173600 | 62 | 46 | 6.1 | 10.4 | 0.00 | 0.05 | 0.03 | 70 | 1014.0 |
| 20260504173104 | 62 | 69 | 3.5 | 8.7 | 0.00 | 0.05 | 0.03 | 72 | 1013.9 |
| 20260504172602 | 61 | 76 | 2.6 | 8.7 | 0.00 | 0.05 | 0.03 | 72 | 1013.9 |
| 20260504172103 | 61 | 64 | 4.3 | 8.7 | 0.00 | 0.05 | 0.03 | 72 | 1013.9 |
| 20260504171601 | 61 | 90 | 2.6 | 9.6 | 0.00 | 0.05 | 0.03 | 71 | 1014.0 |
| 20260504171100 | 62 | 72 | 4.3 | 10.4 | 0.00 | 0.05 | 0.03 | 70 | 1013.8 |
| 20260504170600 | 62 | 69 | 5.2 | 10.4 | 0.00 | 0.05 | 0.03 | 70 | 1013.7 |
| 20260504151059 | 64 | 13 | 2.6 | 12.2 | 0.00 | 0.07 | 0.03 | 74 | 1014.2 |
| 20260504150559 | 64 | 51 | 2.6 | 11.3 | 0.00 | 0.07 | 0.03 | 71 | 1014.3 |
| 20260504141058 | 64 | 30 | 4.3 | 12.2 | 0.00 | 0.07 | 0.03 | 72 | 1014.4 |
| 20260504140558 | 65 | 333 | 5.2 | 13.0 | 0.00 | 0.07 | 0.03 | 73 | 1014.4 |
| 20260504140111 | 64 | 350 | 5.2 | 13.0 | 0.00 | 0.07 | 0.03 | 72 | 1014.5 |
| 20260504130559 | 63 | 315 | 3.5 | 9.6 | 0.00 | 0.07 | 0.03 | 77 | 1014.4 |
| 20260504110604 | 59 | 36 | 3.5 | 7.0 | 0.00 | 0.07 | 0.03 | 85 | 1014.4 |
| 20260504110109 | 59 | 16 | 2.6 | 7.0 | 0.00 | 0.07 | 0.03 | 86 | 1014.6 |
| 20260504100557 | 57 | 42 | 1.7 | 4.3 | 0.03 | 0.07 | 0.03 | 89 | 1014.5 |
| 20260504100104 | 57 | 5 | 1.7 | 4.3 | 0.03 | 0.07 | 0.03 | 89 | 1014.4 |
| 20260504081559 | 56 | 0 | 0.9 | 3.5 | 0.00 | 0.03 | 0.00 | 89 | 1014.2 |
| 20260504081057 | 56 | 163 | 0.9 | 3.5 | 0.00 | 0.03 | 0.00 | 88 | 1014.1 |
| 20260504080600 | 56 | 169 | 0.0 | 2.6 | 0.00 | 0.03 | 0.00 | 88 | 1014.1 |
| 20260504060106 | 53 | 167 | 0.9 | 3.5 | 0.00 | 0.03 | 0.00 | 91 | 1012.9 |